Location: Goettingen
(51.5300°N, 9.9433°E)
Time: 20:36:17
(UTC+02:00)

ISS - Pass Details

Date: 19 September 2021
Orbit: 419 x 423 km, 51.6° (Epoch: 20 September)

Event Time Altitude Azimuth Distance (km) Brightness Sun altitude
Rises 20:04:10 0° 213° (SSW) 2,355 0.4 -6.9°
Reaches altitude 10° 20:06:32 10° 198° (SSW) 1,495 -0.9 -7.2°
Maximum altitude 20:09:12 22° 145° (SE) 973 -2.3 -7.6°
Enters shadow 20:11:44 11° 94° (E) 1,456 -1.7 -8.0°
